• In Uzbekistan
  • List of Countries
  • For 7 days
  • Water Temperature
  • Satellite Maps
  • Weather Map
  • Weather Widgets
  • user-avatar
    Login

    Hourly Weather Jinan

    Today, 19 January, Saturday

    Time Temperature Precipitation Wind Pressure Humidity
    00:00 +4°C° 0 mm 0 mps 762 mmHg 39%
    01:00 +4°C° 0 mm 1 mps 762 mmHg 39%
    02:00 +4°C° 0 mm 1 mps 762 mmHg 39%
    03:00 +4°C° 0 mm 1 mps 762 mmHg 39%
    04:00 +4°C° 0 mm 1 mps 762 mmHg 38%
    05:00 +4°C° 0 mm 1 mps 762 mmHg 38%
    06:00 +2°C° 0 mm 2 mps 762 mmHg 36%
    07:00 +2°C° 0 mm 2 mps 762 mmHg 35%
    08:00 +2°C° 0 mm 2 mps 763 mmHg 33%
    09:00 +3°C° 0 mm 2 mps 763 mmHg 31%
    10:00 +4°C° 0 mm 2 mps 763 mmHg 30%
    11:00 +4°C° 0 mm 3 mps 764 mmHg 28%
    12:00 +4°C° 0 mm 3 mps 764 mmHg 28%
    13:00 +5°C° 0 mm 3 mps 763 mmHg 29%
    14:00 +5°C° 0 mm 3 mps 763 mmHg 29%
    15:00 +5°C° 0 mm 3 mps 764 mmHg 33%
    16:00 +4°C° 0 mm 3 mps 764 mmHg 37%
    17:00 +4°C° 0 mm 4 mps 764 mmHg 41%
    18:00 +3°C° 0 mm 3 mps 765 mmHg 44%
    19:00 +2°C° 0 mm 3 mps 765 mmHg 47%
    20:00 +1°C° 0 mm 3 mps 766 mmHg 50%
    21:00 0°C° 0 mm 3 mps 766 mmHg 53%
    22:00 -1°C° 0 mm 2 mps 767 mmHg 56%
    23:00 -1°C° 0 mm 2 mps 767 mmHg 59%

    Tomorrow, 20 January, Sunday

    Time Temperature Precipitation Wind Pressure Humidity
    00:00 -2°C° 0 mm 2 mps 767 mmHg 59%
    01:00 0°C° 0 mm 1 mps 768 mmHg 59%
    02:00 0°C° 0 mm 1 mps 768 mmHg 58%
    03:00 0°C° 0 mm 1 mps 768 mmHg 57%
    04:00 -1°C° 0 mm 1 mps 768 mmHg 56%
    05:00 -3°C° 0 mm 2 mps 768 mmHg 55%
    06:00 -3°C° 0 mm 2 mps 769 mmHg 51%
    07:00 -3°C° 0 mm 2 mps 770 mmHg 46%
    08:00 -3°C° 0 mm 2 mps 770 mmHg 42%
    09:00 -2°C° 0 mm 3 mps 771 mmHg 35%
    10:00 0°C° 0 mm 3 mps 771 mmHg 29%
    11:00 +1°C° 0 mm 3 mps 771 mmHg 22%
    12:00 +2°C° 0 mm 3 mps 771 mmHg 21%
    13:00 +2°C° 0 mm 3 mps 770 mmHg 19%
    14:00 +3°C° 0 mm 3 mps 770 mmHg 18%
    15:00 +3°C° 0 mm 2 mps 770 mmHg 19%
    16:00 +3°C° 0 mm 2 mps 769 mmHg 20%
    17:00 +3°C° 0 mm 1 mps 769 mmHg 21%
    18:00 +3°C° 0 mm 1 mps 769 mmHg 22%
    19:00 +2°C° 0 mm 1 mps 769 mmHg 23%
    20:00 +1°C° 0 mm 1 mps 769 mmHg 23%
    21:00 +1°C° 0 mm 1 mps 769 mmHg 24%
    22:00 +1°C° 0 mm 1 mps 769 mmHg 25%
    23:00 -2°C° 0 mm 2 mps 769 mmHg 25%

    Day after tomorrow, 21 January, Monday

    Time Temperature Precipitation Wind Pressure Humidity
    00:00 -2°C° 0 mm 2 mps 768 mmHg 26%
    01:00 -2°C° 0 mm 2 mps 767 mmHg 26%
    02:00 -2°C° 0 mm 2 mps 767 mmHg 26%
    03:00 -2°C° 0 mm 2 mps 766 mmHg 27%
    04:00 -2°C° 0 mm 2 mps 766 mmHg 28%
    05:00 -2°C° 0 mm 3 mps 765 mmHg 29%
    06:00 -2°C° 0 mm 3 mps 765 mmHg 30%
    07:00 -2°C° 0 mm 3 mps 765 mmHg 31%
    08:00 -2°C° 0 mm 3 mps 765 mmHg 32%
    09:00 0°C° 0 mm 3 mps 765 mmHg 30%
    10:00 +1°C° 0 mm 3 mps 765 mmHg 29%
    11:00 +3°C° 0 mm 3 mps 764 mmHg 27%
    12:00 +4°C° 0 mm 3 mps 763 mmHg 25%
    13:00 +5°C° 0 mm 3 mps 763 mmHg 23%
    14:00 +7°C° 0 mm 3 mps 762 mmHg 21%
    15:00 +5°C° 0 mm 3 mps 761 mmHg 21%
    16:00 +5°C° 0 mm 2 mps 761 mmHg 22%
    17:00 +5°C° 0 mm 2 mps 761 mmHg 22%
    18:00 +4°C° 0 mm 2 mps 761 mmHg 22%
    19:00 +3°C° 0 mm 2 mps 761 mmHg 22%
    20:00 +3°C° 0 mm 1 mps 762 mmHg 21%
    21:00 +3°C° 0 mm 1 mps 762 mmHg 21%
    22:00 +2°C° 0 mm 1 mps 762 mmHg 20%
    23:00 +2°C° 0 mm 1 mps 762 mmHg 20%

    22 January, Tuesday

    Time Temperature Precipitation Wind Pressure Humidity
    00:00 +2°C° 0 mm 1 mps 762 mmHg 19%
    01:00 +2°C° 0 mm 1 mps 762 mmHg 19%
    02:00 +1°C° 0 mm 1 mps 761 mmHg 19%
    03:00 +1°C° 0 mm 1 mps 761 mmHg 19%
    04:00 +1°C° 0 mm 1 mps 761 mmHg 20%
    05:00 +1°C° 0 mm 1 mps 761 mmHg 20%
    06:00 +1°C° 0 mm 1 mps 762 mmHg 20%
    07:00 +1°C° 0 mm 1 mps 762 mmHg 20%
    08:00 +1°C° 0 mm 1 mps 762 mmHg 20%
    09:00 +3°C° 0 mm 1 mps 763 mmHg 18%
    10:00 +5°C° 0 mm 1 mps 763 mmHg 16%
    11:00 +6°C° 0 mm 1 mps 763 mmHg 15%
    12:00 +7°C° 0 mm 1 mps 762 mmHg 14%
    13:00 +7°C° 0 mm 2 mps 762 mmHg 14%
    14:00 +9°C° 0 mm 2 mps 761 mmHg 14%
    15:00 +8°C° 0 mm 2 mps 761 mmHg 15%
    16:00 +7°C° 0 mm 2 mps 761 mmHg 17%
    17:00 +7°C° 0 mm 1 mps 761 mmHg 19%
    18:00 +7°C° 0 mm 1 mps 762 mmHg 20%
    19:00 +6°C° 0 mm 1 mps 762 mmHg 21%
    20:00 +4°C° 0 mm 2 mps 762 mmHg 22%
    21:00 +4°C° 0 mm 2 mps 762 mmHg 22%
    22:00 +3°C° 0 mm 2 mps 762 mmHg 22%
    23:00 +3°C° 0 mm 2 mps 763 mmHg 22%

    23 January, Wednesday

    Time Temperature Precipitation Wind Pressure Humidity
    00:00 +3°C° 0 mm 2 mps 762 mmHg 22%
    01:00 +4°C° 0 mm 1 mps 762 mmHg 22%
    02:00 +3°C° 0 mm 1 mps 762 mmHg 23%
    03:00 +3°C° 0 mm 1 mps 762 mmHg 23%
    04:00 +3°C° 0 mm 1 mps 762 mmHg 23%
    05:00 +3°C° 0 mm 1 mps 762 mmHg 24%
    06:00 +3°C° 0 mm 1 mps 763 mmHg 24%
    07:00 +3°C° 0 mm 1 mps 763 mmHg 24%
    08:00 +3°C° 0 mm 1 mps 764 mmHg 24%
    09:00 +5°C° 0 mm 1 mps 764 mmHg 21%
    10:00 +7°C° 0 mm 1 mps 764 mmHg 19%
    11:00 +9°C° 0 mm 1 mps 765 mmHg 16%
    12:00 +10°C° 0 mm 1 mps 764 mmHg 16%
    13:00 +11°C° 0 mm 1 mps 764 mmHg 15%
    14:00 +12°C° 0 mm 2 mps 763 mmHg 15%
    15:00 +11°C° 0 mm 1 mps 763 mmHg 17%
    16:00 +10°C° 0 mm 1 mps 763 mmHg 20%
    17:00 +10°C° 0 mm 1 mps 763 mmHg 22%
    18:00 +8°C° 0 mm 1 mps 763 mmHg 25%
    19:00 +7°C° 0 mm 1 mps 764 mmHg 27%
    20:00 +6°C° 0 mm 1 mps 764 mmHg 29%
    21:00 +6°C° 0 mm 1 mps 764 mmHg 31%
    22:00 +4°C° 0 mm 2 mps 764 mmHg 32%
    23:00 +4°C° 0 mm 2 mps 764 mmHg 34%

    24 January, Thursday

    Time Temperature Precipitation Wind Pressure Humidity
    00:00 +4°C° 0 mm 1 mps 764 mmHg 35%
    01:00 +4°C° 0 mm 1 mps 764 mmHg 36%
    02:00 +4°C° 0 mm 1 mps 764 mmHg 37%
    03:00 +4°C° 0 mm 1 mps 764 mmHg 38%
    04:00 +3°C° 0 mm 1 mps 764 mmHg 40%
    05:00 +3°C° 0 mm 1 mps 764 mmHg 41%
    06:00 +3°C° 0 mm 1 mps 765 mmHg 42%
    07:00 +2°C° 0 mm 0 mps 765 mmHg 43%
    08:00 +2°C° 0 mm 0 mps 766 mmHg 44%
    09:00 +4°C° 0 mm 1 mps 766 mmHg 40%
    10:00 +6°C° 0 mm 1 mps 766 mmHg 37%
    11:00 +8°C° 0 mm 1 mps 767 mmHg 33%
    12:00 +9°C° 0 mm 1 mps 766 mmHg 32%
    13:00 +8°C° 0 mm 2 mps 766 mmHg 31%
    14:00 +9°C° 0 mm 2 mps 765 mmHg 30%
    15:00 +9°C° 0 mm 2 mps 766 mmHg 32%
    16:00 +8°C° 0 mm 2 mps 766 mmHg 33%
    17:00 +8°C° 0 mm 2 mps 766 mmHg 35%
    18:00 +5°C° 0 mm 3 mps 767 mmHg 40%
    19:00 +4°C° 0 mm 3 mps 767 mmHg 44%
    20:00 +3°C° 0 mm 4 mps 768 mmHg 49%
    21:00 +1°C° 0 mm 4 mps 769 mmHg 55%
    22:00 +1°C° 0 mm 4 mps 769 mmHg 61%
    23:00 +1°C° 0 mm 3 mps 770 mmHg 67%
    Show more